Regional Weather Roundup
Issued by NWS

Home | Current Version | Previous Version | Graphics & Text | Print | Product List | Glossary On
Versions: 1 2 3 4 5 6 7 8 9 10 11 12 13 14 15 16 17 18 19 20 21 22 23 24 25 26 27 28 29 30 31 32 33 34 35 36 37 38 39 40 41 42 43 44 45 46 47 48 49 50
000
ASUS43 KLOT 301403
RWRIL

ILLINOIS REGIONAL WEATHER ROUNDUP
NATIONAL WEATHER SERVICE CHICAGO/ROMEOVILLE IL
900 AM CDT MON MAY 30 2016

NOTE: "FAIR" INDICATES FEW OR NO CLOUDS BELOW 12,000 FEET WITH NO
SIGNIFICANT WEATHER AND/OR OBSTRUCTIONS TO VISIBILITY.

* THESE STATIONS ARE NOT UNDER NWS QUALITY CONTROL. THEY ALSO MAY NOT
  REPORT WEATHER SUCH AS PRECIPITATION OR FOG.

ILZ001-002-007-009-015-016-024-301500-
NORTHWEST ILLINOIS

CITY           SKY/WX    TMP DP  RH WIND       PRES   REMARKS
MOLINE         MOSUNNY   76  61  59 W6        30.05R
STERLING*      SUNNY     74  63  68 W6        30.06R
$$

ILZ003-004-008-010-011-017-018-301500-
NORTH CENTRAL ILLINOIS

CITY           SKY/WX    TMP DP  RH WIND       PRES   REMARKS
ROCKFORD       MOSUNNY   76  63  64 CALM      30.06R
FREEPORT*      SUNNY     72  60  65 NW5       30.06S
ROCHELLE*      SUNNY     74  61  63 W7        30.05S
$$

ILZ005-006-012>014-019>023-301500-
NORTHEAST ILLINOIS

CITY           SKY/WX    TMP DP  RH WIND       PRES   REMARKS
CHICAGO-OHARE  MOSUNNY   75  59  57 CALM      30.03R
CHICAGO-MIDWAY MOSUNNY   77  59  53 SW3       30.03R
AURORA         SUNNY     75  62  64 SW6       30.04S
LANSING*       SUNNY     76  59  55 CALM      30.04S
WAUKEGAN       SUNNY     75  59  57 W5        30.02S
DUPAGE AIRPORT SUNNY     74  60  61 W3        30.04R
WHEELING       SUNNY     76  58  53 CALM      30.04R
NORTHERLY ISL    N/A     78  59  51 NE1         N/A
NORTHERLY ISL    N/A     78  59  51 NE1         N/A
$$

LMZ740>746-301500-
SOUTHERN LAKE MICHIGAN

STATION/POSITION SKY/WX   TEMP    WIND        PRES    VSBY  WAVE
                          AIR SEA DIR/SP/G                  HT/PER
                          (F)     (DEG/KT/KT) (MB)    (MI)  (FT/S)
SOUTHERN BUOY              56 52  250/  4/  4 1016.5R         0
WILMETTE HARBOR            61 55  100/  2/  4   N/A           0
HARRISON CRIB              72     280/  4/  4   N/A
BURNHAM HARBOR             75     100/  3/  6   N/A
CALUMET HARBOR             74     260/  2/  4 1016.3R
BURNS HARBOR               69     250/  4/  5 1017.6R
MICHIGAN CITY              69     230/  5/  5   N/A
MICHIGAN CITY 6N           64 59  220/  2/  2   N/A           0
ST. JOSEPH                 65 62   CALM  /  2   N/A           1
$$

ILZ025>027-034>036-040-047-049-050-058-095>099-301500-
WEST-CENTRAL ILLINOIS

CITY           SKY/WX    TMP DP  RH WIND       PRES   REMARKS
QUINCY         MOSUNNY   75  64  68 W6        30.09R
MACOMB*        CLOUDY    72  61  68 W8        30.09F
PITTSFIELD*    SUNNY     77  66  68 SW5       30.10R
$$

ILZ028>032-037-038-041>044-048-051>054-059>061-301500-
CENTRAL ILLINOIS

CITY           SKY/WX    TMP DP  RH WIND       PRES   REMARKS
BLOOMINGTON    SUNNY     76  63  64 SW12      30.10R
DECATUR        SUNNY     78  62  57 VRB3      30.08S HX  80
PEORIA         SUNNY     75  64  68 SW6       30.07R
LINCOLN*       SUNNY     79  65  62 CALM      30.07F HX  81
SPRINGFIELD    SUNNY     78  63  59 CALM      30.08S HX  80
TAYLORVILLE    NOT AVBL
$$

ILZ033-039-045-046-055>057-062-063-301500-
EAST-CENTRAL ILLINOIS

CITY           SKY/WX    TMP DP  RH WIND       PRES   REMARKS
CHAMPAIGN      SUNNY     78  57  48 SW8       30.10R
MATTOON        SUNNY     78  57  48 CALM      30.08R
$$

ILZ079-100>102-301500-
SOUTHWEST ILLINOIS

CITY           SKY/WX    TMP DP  RH WIND       PRES   REMARKS
ALTON          MOSUNNY   75  64  69 W7        30.09R
BELLEVILLE     SUNNY     78  68  72 S1        30.08S HX  80
CAHOKIA*       SUNNY     76  64  66 SW3       30.08F
SPARTA*        SUNNY     74  65  74 CALM      30.11S
$$

ILZ064>066-069>071-074>076-080>082-084>086-088>090-092>094-301500-
SOUTH-CENTRAL ILLINOIS

CITY           SKY/WX    TMP DP  RH WIND       PRES   REMARKS
CARBONDALE     SUNNY     75  64  68 VRB3      30.10R
EFFINGHAM*     SUNNY     76  65  69 CALM      30.11R
MARION         MOSUNNY   75  66  73 NW3       30.11R
MT. VERNON     MOSUNNY   77  64  65 CALM      30.11R
SALEM*         SUNNY     78  62  56 SW3       30.10S HX  80
$$

ILZ067-068-072-073-078-083-087-091-301500-
SOUTHEAST ILLINOIS

CITY           SKY/WX    TMP DP  RH WIND       PRES   REMARKS
LAWRENCEVILLE  SUNNY     77  62  59 CALM      30.09R
FLORA*         SUNNY     78  63  58 CALM      30.10R HX  80
HARRISBURG*    SUNNY     74  67  79 CALM      30.10R
ROBINSON*      SUNNY     75  61  60 CALM      30.09S
$$

ABBREVIATIONS USED IN REMARKS
   TC - TEMPERATURE IN CELSIUS
  WCI - WIND CHILL INDEX
   HX - HEAT INDEX
  VSB - VISIBILITY
$$





USA.gov is the U.S. government's official web portal to all federal, state and local government web resources and services.